Rome, NY

3:50 AM EST on January 19, 2017 (GMT -0500)
Griffiss

Weather History for KRME - April, 2014

Change the Weather History Date:

Monday, April 14, 2014

  Actual Average Record
Temperature  
Mean Temperature 65 °F -  
Max Temperature 78 °F 57 °F 78 °F (2014)
Min Temperature 53 °F 33 °F 21 °F (1992)
Growing Degree Days 15 (Base 50)    
Moisture  
Dew Point 52 °F    
Average Humidity 61    
Maximum Humidity 87    
Minimum Humidity 39    
Precipitation  
Precipitation 0.25 in - - ()
Sea Level Pressure  
Sea Level Pressure 29.73 in    
Wind  
Wind Speed 9 mph (SSE)    
Max Wind Speed 25 mph    
Max Gust Speed 32 mph    
Visibility 10 miles    
Events Rain    
Averages and records for this station are not official NWS values.
T = Trace of Precipitation, MM = Missing Value Source: NWS Daily Summary

Daily Weather History Graph

Daily Weather History Graph

Search for Another Location

Airport or City:

Trip Planner

Search our weather history database for the weather conditions in past years. The results will help you decide how hot, cold, wet, or windy it might be!

Date:

Astronomy

Apr. 14, 2014 Rise Set
Actual Time 6:21 AM EDT 7:43 PM EDT
Civil Twilight 5:51 AM EDT 8:12 PM EDT
Nautical Twilight 5:16 AM EDT 8:48 PM EDT
Astronomical Twilight 4:38 AM EDT 9:26 PM EDT
Moon 7:19 PM EDT (4/14) 5:53 AM EDT (4/14)
Length of Visible Light 14h 21m
Length of Day
13h 22m
Full, 100% of the Moon is Illuminated
Apr 14
Full
Apr 15
Full
Apr 22
Last Quarter
Apr 29
New
May 6
First Quarter

Hourly Weather History & Observations

Time (EDT) Temp. Dew Point Humidity Pressure Visibility Wind Dir Wind Speed Gust Speed Precip Events Conditions
12:53 AM 53.1 °F 46.9 °F 80% 29.86 in 10.0 mi Calm Calm - N/A   Clear
1:53 AM 55.9 °F 48.0 °F 75% 29.84 in 10.0 mi East 3.5 mph - N/A   Clear
2:53 AM 62.1 °F 50.0 °F 65% 29.83 in 10.0 mi East 8.1 mph - N/A   Clear
3:53 AM 64.0 °F 51.1 °F 63% 29.80 in 10.0 mi East 9.2 mph - N/A   Clear
5:53 AM 62.1 °F 51.1 °F 67% 29.77 in 10.0 mi East 6.9 mph - N/A   Clear
6:53 AM 64.0 °F 51.1 °F 63% 29.77 in 10.0 mi ESE 8.1 mph - N/A   Clear
8:53 AM 71.1 °F 53.1 °F 53% 29.76 in 10.0 mi SSE 6.9 mph - N/A   Clear
9:53 AM 72.0 °F 52.0 °F 49% 29.75 in 10.0 mi South 13.8 mph 21.9 mph N/A   Clear
10:53 AM 73.0 °F 52.0 °F 48% 29.75 in 10.0 mi South 10.4 mph - N/A   Clear
11:53 AM 73.0 °F 52.0 °F 48% 29.74 in 10.0 mi South 15.0 mph 26.5 mph N/A   Clear
12:53 PM 75.0 °F 51.1 °F 43% 29.71 in 10.0 mi South 15.0 mph 25.3 mph N/A   Clear
2:53 PM 77.0 °F 50.0 °F 39% 29.65 in 10.0 mi South 13.8 mph 24.2 mph N/A   Clear
3:53 PM 77.0 °F 51.1 °F 40% 29.65 in 10.0 mi South 16.1 mph 28.8 mph N/A   Clear
4:53 PM 75.0 °F 50.0 °F 41% 29.62 in 10.0 mi South 17.3 mph 31.1 mph N/A   Clear
5:53 PM 75.0 °F 50.0 °F 41% 29.62 in 10.0 mi South 18.4 mph 31.1 mph N/A   Clear
6:53 PM 73.9 °F 50.0 °F 43% 29.62 in 10.0 mi South 16.1 mph 31.1 mph N/A   Mostly Cloudy
7:12 PM 66.0 °F 54.0 °F 65% 29.69 in 10.0 mi WNW 25.3 mph 32.2 mph N/A   Overcast
7:53 PM 61.0 °F 57.0 °F 87% 29.72 in 4.0 mi West 10.4 mph - 0.08 in Rain Heavy Rain
8:53 PM 61.0 °F 57.0 °F 87% 29.72 in 8.0 mi East 3.5 mph - 0.12 in Rain Rain
9:53 PM 61.0 °F 57.0 °F 87% 29.73 in 9.0 mi East 11.5 mph 23.0 mph 0.02 in Rain Rain
10:53 PM 63.0 °F 55.0 °F 75% 29.70 in 8.0 mi SSW 12.7 mph 21.9 mph 0.02 in Rain Light Rain
11:53 PM 62.1 °F 55.9 °F 80% 29.70 in 10.0 mi Variable 5.8 mph - 0.01 in   Overcast